STARLINK-32123, 60284

Orbit data source: Space-Track

STARLINK-32123, 60284 is a payload satellite owned by SpaceX/Seattle (US) in LEO that was launched on Sun, 28 Jul 2024 UTC via an FALCON 9 launch vehicle from the Air Force Eastern Test Range (AFETR). Payloads include a variety of satellites, spacecraft, and rockets equipped with specific instruments for various scientific and technological missions. These include communications satellites like Starlink; space stations such as the ISS; scientific satellites like the Hubble; Earth observation satellites from companies like Planet Labs, Umbra, and HawkEye 360; GPS; miniature CubeSats for education and research; and military/defense satellites.

Loading next visibility...
STARLINK-32123 details
Identifier
60284, 2024-132G
Orbit
LEO
Last TLE update9 hours ago
Origin
Flag of USSpaceX/Seattle (US)
ManufacturerSpaceX/Seattle
MissionOperational spacecraft
Bus & MotorSTARLINK V2M, Unknown motor
Mass730 kg wet, ~700 kg dry
Launch date (UTC)
2024-07-28 (5 months ago)
Launch vehicle
FALCON 9
Launch site
Air Force Eastern Test Range (AFETR)
Object type
Payload
Rocket body
Debris
Shape & HBRUnknown
Radar Cross SectionLarge (>1 m²)

Expand to show TLE details & history

TLE from 9 hours ago
0 STARLINK-32123
1 60284U 24132G   24356.16667824  .00056377  00000-0  17100-2 0  9991
2 60284  53.1593 312.1956 0004228 118.0025 115.3261 15.33592229 23654
Epoch: 2024-12-21T04:00Z
Definitive object data (Epoch: 2024-12-21T04:00:00.999Z)
Latitude-40.16509°
Longitude20.93505°
Altitude479.581 km
Speed7.625 km/s
True Right ascension11h 24m 38s
True Declination-39° 59' 20"
Sunlit
Object was in daylight at TLE epoch
Visualization TLE readout
Latitude42.51797°
Longitude-62.853°
Altitude466.223 km
Speed7.64 km/s
Apparent Right ascension02h 56m 13s
Apparent Declination4° 15' 58"
Sunlit
Object is in full shadow
Visualization observer readout
Local Sidereal Time11:56:05
Azimuth305.822° NW
Elevation-29.525°
Doppler factor1
Orbital elements
Apogee altitude468.256 km
Perigee altitude462.469 km
Semi-major axis6,843.499 km
Eccentricity0.0004228
Inclination53.1593°
RAAN312.1956°
Arg. of periapsis118.0025°
True anomaly115.36988°
Mean anomaly115.3261°
Eccentric anomaly115.34799°
Mean motion3.83377 °/min
BSTAR0.00171
Orbital period93.9 mins
Loading maneuver chart data...
Loading historical data...
Loading historical data...
Loading historical data...
Loading historical data...
Loading historical data...
Loading historical data...
Loading historical data...

STARLINK-32123 Visibility forecast

Observer location: undefined°, undefined

Span
Click to sort rows by Start time (UTC) header in descending order
Start Az.
Max El. time (UTC)
Max El. Az.
Max El.
End time (UTC)
End Az.
6 mins2024-12-21 23:29:12.980Z200.664° SSW2024-12-21 23:32:12.980Z115.076° SE32.783°2024-12-21 23:35:12.980Z62.788° ENE
4 mins2024-12-22 01:08:12.980Z294.721° NW2024-12-22 01:09:12.980Z319.716° NNW23.628°2024-12-22 01:12:12.980Z26.2° NE
4 mins2024-12-22 06:04:12.980Z341.844° N2024-12-22 06:06:12.980Z50.914° ENE30.535°2024-12-22 06:08:12.980Z95.48° ESE
4 mins2024-12-22 07:42:12.980Z259.019° W2024-12-22 07:43:12.980Z232.962° WSW22.851°2024-12-22 07:46:12.980Z173.775° S
|